Time,TemperatureF,DewpointF,PressureIn,WindDirection,WindDirectionDegrees,WindSpeedMPH,WindSpeedGustMPH,Humidity,HourlyPrecipIn,Conditions,Clouds,dailyrainin,SoftwareType,DateUTC
2013-07-12 00:03:00,61.5,55.3,28.00,South,180,0.0,2.0,80,0.00,,---,0.00,VWS V14.01,2013-07-12 05:03:00,
2013-07-12 00:08:00,61.3,55.1,28.00,SE,142,2.0,2.0,80,0.00,,---,0.00,VWS V14.01,2013-07-12 05:08:00,
2013-07-12 00:14:00,61.2,54.6,28.00,SSE,161,3.0,3.0,79,0.00,,---,0.00,VWS V14.01,2013-07-12 05:14:00,
2013-07-12 00:19:00,61.4,55.2,28.00,South,173,0.0,0.0,80,0.00,,---,0.00,VWS V14.01,2013-07-12 05:19:00,
2013-07-12 00:24:00,61.1,54.9,28.00,South,173,1.0,2.0,80,0.00,,---,0.00,VWS V14.01,2013-07-12 05:24:00,
2013-07-12 00:29:00,60.9,55.0,28.00,ESE,111,1.0,3.0,81,0.00,,---,0.00,VWS V14.01,2013-07-12 05:29:00,
2013-07-12 00:34:00,60.8,54.6,28.00,SSE,150,0.0,4.0,80,0.00,,---,0.00,VWS V14.01,2013-07-12 05:34:00,
2013-07-12 00:39:00,60.7,54.5,28.00,SSE,153,2.0,4.0,80,0.00,,---,0.00,VWS V14.01,2013-07-12 05:39:00,
2013-07-12 00:44:00,60.6,54.8,28.00,SSW,193,0.0,1.0,81,0.00,,---,0.00,VWS V14.01,2013-07-12 05:44:00,
2013-07-12 00:49:00,60.6,54.4,28.00,SE,142,3.0,3.0,80,0.00,,---,0.00,VWS V14.01,2013-07-12 05:49:00,
2013-07-12 00:55:00,60.7,54.5,28.00,South,171,0.0,0.0,80,0.00,,---,0.00,VWS V14.01,2013-07-12 05:55:00,
2013-07-12 01:00:00,60.7,54.2,28.00,ESE,113,2.0,5.0,79,0.00,,---,0.00,VWS V14.01,2013-07-12 06:00:00,
2013-07-12 01:05:00,60.6,54.1,28.00,SSE,149,1.0,3.0,79,0.00,,---,0.00,VWS V14.01,2013-07-12 06:05:00,
2013-07-12 01:10:00,60.5,54.3,28.00,SSE,153,0.0,1.0,80,0.00,,---,0.00,VWS V14.01,2013-07-12 06:10:00,
2013-07-12 01:15:00,60.3,54.1,28.00,SSE,156,0.0,0.0,80,0.00,,---,0.00,VWS V14.01,2013-07-12 06:15:00,
2013-07-12 01:20:00,60.1,54.3,27.99,SSE,156,0.0,1.0,81,0.00,,---,0.00,VWS V14.01,2013-07-12 06:20:00,
2013-07-12 01:25:00,59.9,54.1,27.99,SE,138,4.0,4.0,81,0.00,,---,0.00,VWS V14.01,2013-07-12 06:25:00,
2013-07-12 01:30:00,59.9,54.4,27.99,SSW,193,0.0,0.0,82,0.00,,---,0.00,VWS V14.01,2013-07-12 06:30:00,
2013-07-12 01:36:00,59.9,54.4,28.00,South,190,0.0,1.0,82,0.00,,---,0.00,VWS V14.01,2013-07-12 06:36:00,
2013-07-12 01:41:00,59.9,54.4,28.00,South,190,0.0,0.0,82,0.00,,---,0.00,VWS V14.01,2013-07-12 06:41:00,
2013-07-12 01:46:00,59.9,54.4,28.00,South,190,1.0,1.0,82,0.00,,---,0.00,VWS V14.01,2013-07-12 06:46:00,
2013-07-12 01:51:00,59.8,54.6,28.00,South,190,1.0,2.0,83,0.00,,---,0.00,VWS V14.01,2013-07-12 06:51:00,
2013-07-12 01:56:00,59.6,54.4,28.00,SSW,193,1.0,2.0,83,0.00,,---,0.00,VWS V14.01,2013-07-12 06:56:00,
2013-07-12 02:01:00,59.5,54.3,28.00,SSW,192,0.0,0.0,83,0.00,,---,0.00,VWS V14.01,2013-07-12 07:01:00,
2013-07-12 02:06:00,59.4,54.6,28.00,SSW,192,0.0,0.0,84,0.00,,---,0.00,VWS V14.01,2013-07-12 07:06:00,
2013-07-12 02:12:00,59.4,54.9,28.00,SSW,193,0.0,0.0,85,0.00,,---,0.00,VWS V14.01,2013-07-12 07:12:00,
2013-07-12 02:17:00,59.7,54.9,28.00,SSW,193,0.0,1.0,84,0.00,,---,0.00,VWS V14.01,2013-07-12 07:17:00,
2013-07-12 02:22:00,59.9,55.1,28.00,SSW,193,0.0,1.0,84,0.00,,---,0.00,VWS V14.01,2013-07-12 07:22:00,
2013-07-12 02:27:00,60.3,55.5,28.00,SSW,194,0.0,0.0,84,0.00,,---,0.00,VWS V14.01,2013-07-12 07:27:00,
2013-07-12 02:32:00,60.7,55.8,28.00,SW,228,1.0,1.0,84,0.00,,---,0.00,VWS V14.01,2013-07-12 07:32:00,
2013-07-12 02:38:00,61.0,55.8,28.00,SW,228,0.0,0.0,83,0.00,,---,0.00,VWS V14.01,2013-07-12 07:38:00,
2013-07-12 02:43:00,61.3,56.1,28.00,SW,228,0.0,0.0,83,0.00,,---,0.00,VWS V14.01,2013-07-12 07:43:00,
2013-07-12 02:48:00,61.6,56.4,27.99,SW,229,0.0,0.0,83,0.00,,---,0.00,VWS V14.01,2013-07-12 07:48:00,
2013-07-12 02:53:00,61.8,56.2,27.99,SW,227,1.0,3.0,82,0.00,,---,0.00,VWS V14.01,2013-07-12 07:53:00,
2013-07-12 02:58:00,61.9,56.3,27.99,SW,227,0.0,1.0,82,0.00,,---,0.00,VWS V14.01,2013-07-12 07:58:00,
2013-07-12 03:04:00,62.2,56.6,27.98,SW,229,2.0,4.0,82,0.00,,---,0.00,VWS V14.01,2013-07-12 08:04:00,
2013-07-12 03:09:00,62.5,56.9,27.98,SW,229,1.0,1.0,82,0.00,,---,0.00,VWS V14.01,2013-07-12 08:09:00,
2013-07-12 03:14:00,62.8,56.9,27.98,SSW,201,1.0,6.0,81,0.00,,---,0.00,VWS V14.01,2013-07-12 08:14:00,
2013-07-12 03:19:00,63.2,56.9,27.98,SSW,193,1.0,2.0,80,0.00,,---,0.00,VWS V14.01,2013-07-12 08:19:00,
2013-07-12 03:25:00,63.5,57.2,27.98,South,173,0.0,1.0,80,0.00,,---,0.00,VWS V14.01,2013-07-12 08:25:00,
2013-07-12 03:30:00,63.4,57.1,27.98,South,178,0.0,0.0,80,0.00,,---,0.00,VWS V14.01,2013-07-12 08:30:00,
2013-07-12 03:35:00,63.2,56.9,27.98,South,178,0.0,1.0,80,0.00,,---,0.00,VWS V14.01,2013-07-12 08:35:00,
2013-07-12 03:40:00,63.2,56.9,27.98,SSE,163,0.0,4.0,80,0.00,,---,0.00,VWS V14.01,2013-07-12 08:40:00,
2013-07-12 03:45:00,63.1,57.2,27.98,South,181,0.0,0.0,81,0.00,,---,0.00,VWS V14.01,2013-07-12 08:45:00,
2013-07-12 03:51:00,63.1,57.2,27.98,SSE,148,0.0,2.0,81,0.00,,---,0.00,VWS V14.01,2013-07-12 08:51:00,
2013-07-12 03:56:00,63.2,57.3,27.98,SSW,210,2.0,2.0,81,0.00,,---,0.00,VWS V14.01,2013-07-12 08:56:00,
2013-07-12 04:01:00,63.1,56.8,27.98,SSW,209,1.0,5.0,80,0.00,,---,0.00,VWS V14.01,2013-07-12 09:01:00,
2013-07-12 04:06:00,63.1,57.2,27.98,SSW,200,0.0,2.0,81,0.00,,---,0.00,VWS V14.01,2013-07-12 09:06:00,
2013-07-12 04:11:00,63.0,57.1,27.98,SSW,193,0.0,0.0,81,0.00,,---,0.00,VWS V14.01,2013-07-12 09:11:00,
2013-07-12 04:16:00,63.0,57.1,27.98,SW,219,0.0,3.0,81,0.00,,---,0.00,VWS V14.01,2013-07-12 09:16:00,
2013-07-12 04:21:00,63.1,57.2,27.98,SSE,165,0.0,2.0,81,0.00,,---,0.00,VWS V14.01,2013-07-12 09:21:00,
2013-07-12 04:26:00,63.1,57.2,27.98,SSE,149,0.0,1.0,81,0.00,,---,0.00,VWS V14.01,2013-07-12 09:26:00,
2013-07-12 04:32:00,63.2,57.3,27.99,South,176,1.0,1.0,81,0.00,,---,0.00,VWS V14.01,2013-07-12 09:32:00,
2013-07-12 04:37:00,63.2,57.3,27.99,SSW,213,1.0,3.0,81,0.00,,---,0.00,VWS V14.01,2013-07-12 09:37:00,
2013-07-12 04:42:00,63.2,57.3,27.99,South,180,1.0,2.0,81,0.00,,---,0.00,VWS V14.01,2013-07-12 09:42:00,
2013-07-12 04:47:00,63.2,57.3,27.99,South,185,0.0,4.0,81,0.00,,---,0.00,VWS V14.01,2013-07-12 09:47:00,
2013-07-12 04:52:00,63.2,57.3,27.99,WSW,239,4.0,4.0,81,0.00,,---,0.00,VWS V14.01,2013-07-12 09:52:00,
2013-07-12 04:57:00,63.2,57.3,27.99,SSW,194,0.0,2.0,81,0.00,,---,0.00,VWS V14.01,2013-07-12 09:57:00,
2013-07-12 05:02:00,63.1,57.2,27.98,WSW,247,1.0,4.0,81,0.00,,---,0.00,VWS V14.01,2013-07-12 10:02:00,
2013-07-12 05:07:00,63.1,57.2,27.98,SE,146,3.0,8.0,81,0.00,,---,0.00,VWS V14.01,2013-07-12 10:07:00,
2013-07-12 05:12:00,63.2,57.3,27.98,South,177,2.0,6.0,81,0.00,,---,0.00,VWS V14.01,2013-07-12 10:12:00,
2013-07-12 05:17:00,63.1,57.2,27.98,South,177,0.0,2.0,81,0.00,,---,0.00,VWS V14.01,2013-07-12 10:17:00,
2013-07-12 05:23:00,63.0,57.1,27.98,SSW,210,0.0,0.0,81,0.00,,---,0.00,VWS V14.01,2013-07-12 10:23:00,
2013-07-12 05:28:00,62.9,57.3,27.98,SW,226,1.0,4.0,82,0.00,,---,0.00,VWS V14.01,2013-07-12 10:28:00,
2013-07-12 05:33:00,62.9,57.3,27.99,SSW,207,5.0,5.0,82,0.00,,---,0.00,VWS V14.01,2013-07-12 10:33:00,
2013-07-12 05:38:00,63.0,57.4,27.99,SSW,198,1.0,2.0,82,0.00,,---,0.00,VWS V14.01,2013-07-12 10:38:00,
2013-07-12 05:44:00,63.1,57.5,27.99,SE,130,0.0,0.0,82,0.00,,---,0.00,VWS V14.01,2013-07-12 10:44:00,
2013-07-12 05:49:00,63.2,58.0,27.99,SSW,196,0.0,2.0,83,0.00,,---,0.00,VWS V14.01,2013-07-12 10:49:00,
2013-07-12 05:54:00,63.2,57.6,27.99,SE,146,5.0,5.0,82,0.00,,---,0.00,VWS V14.01,2013-07-12 10:54:00,
2013-07-12 05:59:00,63.4,57.8,27.99,ESE,117,2.0,6.0,82,0.00,,---,0.00,VWS V14.01,2013-07-12 10:59:00,
2013-07-12 06:04:00,63.6,57.7,28.00,SSE,159,5.0,6.0,81,0.00,,---,0.00,VWS V14.01,2013-07-12 11:04:00,
2013-07-12 06:10:00,63.8,57.5,28.00,SSW,197,1.0,3.0,80,0.00,,---,0.00,VWS V14.01,2013-07-12 11:10:00,
2013-07-12 06:15:00,64.0,58.1,28.00,SSW,202,6.0,6.0,81,0.00,,---,0.00,VWS V14.01,2013-07-12 11:15:00,
2013-07-12 06:20:00,64.1,57.8,28.00,South,171,0.0,4.0,80,0.00,,---,0.00,VWS V14.01,2013-07-12 11:20:00,
2013-07-12 06:25:00,64.3,58.0,28.00,SSE,147,1.0,9.0,80,0.00,,---,0.00,VWS V14.01,2013-07-12 11:25:00,
2013-07-12 06:31:00,64.4,58.1,28.00,SSE,166,0.0,0.0,80,0.00,,---,0.00,VWS V14.01,2013-07-12 11:31:00,
2013-07-12 06:36:00,64.4,58.1,28.00,West,263,2.0,6.0,80,0.00,,---,0.00,VWS V14.01,2013-07-12 11:36:00,
2013-07-12 06:41:00,64.5,58.2,28.00,South,169,1.0,3.0,80,0.00,,---,0.00,VWS V14.01,2013-07-12 11:41:00,
2013-07-12 06:46:00,64.6,58.3,28.00,South,181,0.0,2.0,80,0.00,,---,0.00,VWS V14.01,2013-07-12 11:46:00,
2013-07-12 06:51:00,64.8,58.1,28.00,SSW,198,2.0,5.0,79,0.00,,---,0.00,VWS V14.01,2013-07-12 11:51:00,
2013-07-12 06:56:00,65.0,58.3,28.00,South,178,3.0,3.0,79,0.00,,---,0.00,VWS V14.01,2013-07-12 11:56:00,
2013-07-12 07:01:00,64.9,58.2,27.99,SSW,193,0.0,3.0,79,0.00,,---,0.00,VWS V14.01,2013-07-12 12:01:00,
2013-07-12 07:07:00,64.8,58.1,27.99,SSE,162,1.0,4.0,79,0.00,,---,0.00,VWS V14.01,2013-07-12 12:07:00,
2013-07-12 07:12:00,64.8,58.5,27.99,SSE,153,0.0,6.0,80,0.00,,---,0.00,VWS V14.01,2013-07-12 12:12:00,
2013-07-12 07:17:00,65.2,58.5,27.99,SE,141,0.0,7.0,79,0.00,,---,0.00,VWS V14.01,2013-07-12 12:17:00,
2013-07-12 07:22:00,65.7,58.7,27.99,South,173,6.0,6.0,78,0.00,,---,0.00,VWS V14.01,2013-07-12 12:22:00,
2013-07-12 07:27:00,66.0,59.0,27.99,SSE,160,3.0,4.0,78,0.00,,---,0.00,VWS V14.01,2013-07-12 12:27:00,
2013-07-12 07:33:00,66.4,58.6,27.99,SW,222,4.0,4.0,76,0.00,,---,0.00,VWS V14.01,2013-07-12 12:33:00,
2013-07-12 07:38:00,66.9,59.5,27.99,East,84,2.0,4.0,77,0.00,,---,0.00,VWS V14.01,2013-07-12 12:38:00,
2013-07-12 07:43:00,67.4,59.6,27.99,SSW,201,3.0,3.0,76,0.00,,---,0.00,VWS V14.01,2013-07-12 12:43:00,
2013-07-12 07:48:00,67.7,59.5,27.99,West,273,3.0,3.0,75,0.00,,---,0.00,VWS V14.01,2013-07-12 12:48:00,
2013-07-12 07:53:00,68.1,58.7,27.99,SE,146,2.0,12.0,72,0.00,,---,0.00,VWS V14.01,2013-07-12 12:53:00,
2013-07-12 07:59:00,68.4,59.4,27.99,WSW,253,1.0,3.0,73,0.00,,---,0.00,VWS V14.01,2013-07-12 12:59:00,
2013-07-12 08:04:00,68.9,59.9,27.98,SSW,206,6.0,6.0,73,0.00,,---,0.00,VWS V14.01,2013-07-12 13:04:00,
2013-07-12 08:09:00,69.2,60.2,27.98,NW,323,3.0,6.0,73,0.00,,---,0.00,VWS V14.01,2013-07-12 13:09:00,
2013-07-12 08:14:00,69.4,60.0,27.98,West,267,4.0,5.0,72,0.00,,---,0.00,VWS V14.01,2013-07-12 13:14:00,
2013-07-12 08:19:00,69.5,60.5,27.99,South,184,5.0,5.0,73,0.00,,---,0.00,VWS V14.01,2013-07-12 13:19:00,
2013-07-12 08:24:00,69.5,59.7,27.99,South,188,6.0,6.0,71,0.00,,---,0.00,VWS V14.01,2013-07-12 13:24:00,
2013-07-12 08:30:00,69.7,60.7,27.99,SE,142,2.0,3.0,73,0.00,,---,0.00,VWS V14.01,2013-07-12 13:30:00,
2013-07-12 08:35:00,69.9,60.1,27.98,WSW,254,0.0,7.0,71,0.00,,---,0.00,VWS V14.01,2013-07-12 13:35:00,
2013-07-12 08:40:00,70.0,60.2,27.98,South,185,3.0,7.0,71,0.00,,---,0.00,VWS V14.01,2013-07-12 13:40:00,
2013-07-12 08:45:00,70.2,60.8,27.98,SSW,196,2.0,8.0,72,0.00,,---,0.00,VWS V14.01,2013-07-12 13:45:00,
2013-07-12 08:50:00,70.5,60.7,27.98,South,173,3.0,7.0,71,0.00,,---,0.00,VWS V14.01,2013-07-12 13:50:00,
2013-07-12 08:56:00,70.7,60.8,27.98,West,267,2.0,4.0,71,0.00,,---,0.00,VWS V14.01,2013-07-12 13:56:00,
2013-07-12 09:01:00,71.0,61.1,27.98,SSE,167,0.0,4.0,71,0.00,,---,0.00,VWS V14.01,2013-07-12 14:01:00,
2013-07-12 09:06:00,71.3,61.4,27.98,South,182,1.0,1.0,71,0.00,,---,0.00,VWS V14.01,2013-07-12 14:06:00,
2013-07-12 09:12:00,71.3,61.0,27.98,SSE,148,8.0,8.0,70,0.00,,---,0.00,VWS V14.01,2013-07-12 14:12:00,
2013-07-12 09:17:00,71.3,60.6,27.98,South,190,5.0,5.0,69,0.00,,---,0.00,VWS V14.01,2013-07-12 14:17:00,
2013-07-12 09:22:00,71.4,60.7,27.98,SSE,147,2.0,7.0,69,0.00,,---,0.00,VWS V14.01,2013-07-12 14:22:00,
2013-07-12 09:27:00,72.0,62.1,27.98,South,173,0.0,2.0,71,0.00,,---,0.00,VWS V14.01,2013-07-12 14:27:00,
2013-07-12 09:32:00,72.4,61.2,27.97,SSW,197,5.0,6.0,68,0.00,,---,0.00,VWS V14.01,2013-07-12 14:32:00,
2013-07-12 09:37:00,72.5,62.6,27.97,SE,140,3.0,4.0,71,0.00,,---,0.00,VWS V14.01,2013-07-12 14:37:00,
2013-07-12 09:42:00,73.1,61.9,27.97,SW,235,7.0,8.0,68,0.00,,---,0.00,VWS V14.01,2013-07-12 14:42:00,
2013-07-12 09:47:00,73.3,62.1,27.97,SW,214,7.0,8.0,68,0.00,,---,0.00,VWS V14.01,2013-07-12 14:47:00,
2013-07-12 09:52:00,73.4,62.6,27.97,SE,127,5.0,13.0,69,0.00,,---,0.00,VWS V14.01,2013-07-12 14:52:00,
2013-07-12 09:58:00,73.5,62.3,27.97,SSE,165,3.0,5.0,68,0.00,,---,0.00,VWS V14.01,2013-07-12 14:58:00,
2013-07-12 10:03:00,73.9,62.7,27.97,SSE,167,4.0,6.0,68,0.00,,---,0.00,VWS V14.01,2013-07-12 15:03:00,
2013-07-12 10:08:00,74.0,62.4,27.97,South,186,2.0,5.0,67,0.00,,---,0.00,VWS V14.01,2013-07-12 15:08:00,
2013-07-12 10:13:00,74.4,64.0,27.97,South,180,2.0,3.0,70,0.00,,---,0.00,VWS V14.01,2013-07-12 15:13:00,
2013-07-12 10:18:00,74.6,63.3,27.96,SSW,199,1.0,5.0,68,0.00,,---,0.00,VWS V14.01,2013-07-12 15:18:00,
2013-07-12 10:23:00,74.9,63.6,27.96,SSW,204,2.0,7.0,68,0.00,,---,0.00,VWS V14.01,2013-07-12 15:23:00,
2013-07-12 10:28:00,74.8,63.1,27.96,West,267,7.0,12.0,67,0.00,,---,0.00,VWS V14.01,2013-07-12 15:28:00,
2013-07-12 10:34:00,74.9,63.2,27.95,South,170,3.0,4.0,67,0.00,,---,0.00,VWS V14.01,2013-07-12 15:34:00,
2013-07-12 10:39:00,74.4,62.7,27.95,South,190,3.0,6.0,67,0.00,,---,0.00,VWS V14.01,2013-07-12 15:39:00,
2013-07-12 10:44:00,74.7,63.9,27.95,South,190,1.0,3.0,69,0.00,,---,0.00,VWS V14.01,2013-07-12 15:44:00,
2013-07-12 10:49:00,75.0,63.7,27.95,SW,230,5.0,9.0,68,0.00,,---,0.00,VWS V14.01,2013-07-12 15:49:00,
2013-07-12 10:54:00,74.6,63.3,27.95,SW,236,0.0,4.0,68,0.00,,---,0.00,VWS V14.01,2013-07-12 15:54:00,
2013-07-12 10:59:00,74.0,62.8,27.95,SSE,148,2.0,7.0,68,0.00,,---,0.00,VWS V14.01,2013-07-12 15:59:00,
2013-07-12 11:05:00,73.8,63.0,27.95,WSW,248,1.0,1.0,69,0.00,,---,0.00,VWS V14.01,2013-07-12 16:05:00,
2013-07-12 11:10:00,73.6,63.2,27.95,SSE,153,3.0,3.0,70,0.00,,---,0.00,VWS V14.01,2013-07-12 16:10:00,
2013-07-12 11:15:00,73.7,62.9,27.95,South,183,2.0,8.0,69,0.00,,---,0.00,VWS V14.01,2013-07-12 16:15:00,
2013-07-12 11:20:00,74.1,64.9,27.95,ESE,110,4.0,9.0,73,0.00,,---,0.00,VWS V14.01,2013-07-12 16:20:00,
2013-07-12 11:26:00,74.7,63.5,27.95,SE,146,2.0,5.0,68,0.00,,---,0.00,VWS V14.01,2013-07-12 16:26:00,
2013-07-12 11:31:00,74.8,63.1,27.95,South,174,9.0,9.0,67,0.00,,---,0.00,VWS V14.01,2013-07-12 16:31:00,
2013-07-12 11:36:00,75.1,63.4,27.95,SSE,168,5.0,8.0,67,0.00,,---,0.00,VWS V14.01,2013-07-12 16:36:00,
2013-07-12 11:41:00,75.4,63.7,27.95,SSE,157,2.0,9.0,67,0.00,,---,0.00,VWS V14.01,2013-07-12 16:41:00,
2013-07-12 11:46:00,76.2,64.0,27.95,SSE,161,3.0,3.0,66,0.00,,---,0.00,VWS V14.01,2013-07-12 16:46:00,
2013-07-12 11:52:00,76.8,64.6,27.95,SSW,199,3.0,3.0,66,0.00,,---,0.00,VWS V14.01,2013-07-12 16:52:00,
2013-07-12 11:57:00,77.5,65.3,27.95,SE,142,6.0,7.0,66,0.00,,---,0.00,VWS V14.01,2013-07-12 16:57:00,
2013-07-12 12:02:00,77.6,65.3,27.94,SW,234,1.0,2.0,66,0.00,,---,0.00,VWS V14.01,2013-07-12 17:02:00,
2013-07-12 12:07:00,77.8,64.2,27.94,SSE,164,1.0,3.0,63,0.00,,---,0.00,VWS V14.01,2013-07-12 17:07:00,
2013-07-12 12:12:00,77.9,65.2,27.94,SSE,151,6.0,6.0,65,0.00,,---,0.00,VWS V14.01,2013-07-12 17:12:00,
2013-07-12 12:17:00,77.8,64.7,27.94,North,351,2.0,6.0,64,0.00,,---,0.00,VWS V14.01,2013-07-12 17:17:00,
2013-07-12 12:22:00,78.0,63.9,27.94,South,186,1.0,5.0,62,0.00,,---,0.00,VWS V14.01,2013-07-12 17:22:00,
2013-07-12 12:27:00,78.1,65.8,27.94,South,182,3.0,4.0,66,0.00,,---,0.00,VWS V14.01,2013-07-12 17:27:00,
2013-07-12 12:32:00,78.3,65.1,27.94,SSW,204,6.0,8.0,64,0.00,,---,0.00,VWS V14.01,2013-07-12 17:32:00,
2013-07-12 12:37:00,77.6,64.0,27.94,SE,140,1.0,8.0,63,0.00,,---,0.00,VWS V14.01,2013-07-12 17:37:00,
2013-07-12 12:42:00,77.5,63.5,27.94,South,179,2.0,8.0,62,0.00,,---,0.00,VWS V14.01,2013-07-12 17:42:00,
2013-07-12 12:48:00,77.9,64.3,27.94,East,96,2.0,2.0,63,0.00,,---,0.00,VWS V14.01,2013-07-12 17:48:00,
2013-07-12 12:53:00,77.6,64.0,27.94,SSE,161,1.0,10.0,63,0.00,,---,0.00,VWS V14.01,2013-07-12 17:53:00,
2013-07-12 12:58:00,77.7,63.7,27.94,South,189,6.0,8.0,62,0.00,,---,0.00,VWS V14.01,2013-07-12 17:58:00,
2013-07-12 13:03:00,77.5,64.4,27.95,South,169,0.0,8.0,64,0.00,,---,0.00,VWS V14.01,2013-07-12 18:03:00,
2013-07-12 13:08:00,77.0,63.5,27.95,SW,224,5.0,8.0,63,0.00,,---,0.00,VWS V14.01,2013-07-12 18:08:00,
2013-07-12 13:13:00,76.9,65.1,27.95,SE,134,5.0,5.0,67,0.00,,---,0.00,VWS V14.01,2013-07-12 18:13:00,
2013-07-12 13:19:00,77.2,63.6,27.95,South,169,1.0,6.0,63,0.00,,---,0.00,VWS V14.01,2013-07-12 18:19:00,
2013-07-12 13:25:00,76.8,65.0,27.95,SSW,212,0.0,5.0,67,0.00,,---,0.00,VWS V14.01,2013-07-12 18:25:00,
2013-07-12 13:30:00,76.6,64.4,27.95,SSE,158,1.0,5.0,66,0.00,,---,0.00,VWS V14.01,2013-07-12 18:30:00,
2013-07-12 13:35:00,76.6,64.4,27.94,SSW,192,3.0,5.0,66,0.00,,---,0.00,VWS V14.01,2013-07-12 18:35:00,
2013-07-12 13:40:00,76.4,65.1,27.94,SSE,155,4.0,6.0,68,0.00,,---,0.00,VWS V14.01,2013-07-12 18:40:00,
2013-07-12 13:45:00,75.7,64.0,27.94,East,81,3.0,10.0,67,0.00,,---,0.00,VWS V14.01,2013-07-12 18:45:00,
2013-07-12 13:51:00,75.2,64.8,27.94,SSE,150,7.0,8.0,70,0.00,,---,0.00,VWS V14.01,2013-07-12 18:51:00,
2013-07-12 13:56:00,75.2,63.9,27.94,SSE,163,9.0,9.0,68,0.00,,---,0.00,VWS V14.01,2013-07-12 18:56:00,
2013-07-12 14:01:00,75.1,63.8,27.94,SE,137,3.0,4.0,68,0.00,,---,0.00,VWS V14.01,2013-07-12 19:01:00,
2013-07-12 14:06:00,75.1,65.1,27.94,SE,146,3.0,9.0,71,0.00,,---,0.00,VWS V14.01,2013-07-12 19:06:00,
2013-07-12 14:11:00,74.9,64.1,27.94,South,170,2.0,3.0,69,0.00,,---,0.00,VWS V14.01,2013-07-12 19:11:00,
2013-07-12 14:16:00,74.7,65.1,27.95,SSW,193,0.0,1.0,72,0.00,,---,0.00,VWS V14.01,2013-07-12 19:16:00,
2013-07-12 14:22:00,74.9,64.5,27.95,SSE,157,5.0,8.0,70,0.00,,---,0.00,VWS V14.01,2013-07-12 19:22:00,
2013-07-12 14:27:00,75.6,64.7,27.95,WSW,240,4.0,9.0,69,0.00,,---,0.00,VWS V14.01,2013-07-12 19:27:00,
2013-07-12 14:32:00,76.6,65.3,27.94,South,181,3.0,4.0,68,0.00,,---,0.00,VWS V14.01,2013-07-12 19:32:00,
2013-07-12 14:37:00,77.3,65.5,27.94,South,186,7.0,14.0,67,0.00,,---,0.00,VWS V14.01,2013-07-12 19:37:00,
2013-07-12 14:42:00,77.1,64.4,27.94,SE,139,4.0,5.0,65,0.00,,---,0.00,VWS V14.01,2013-07-12 19:42:00,
2013-07-12 14:47:00,77.2,64.1,27.94,West,265,3.0,7.0,64,0.00,,---,0.00,VWS V14.01,2013-07-12 19:47:00,
2013-07-12 14:52:00,77.6,65.3,27.94,South,179,2.0,2.0,66,0.00,,---,0.00,VWS V14.01,2013-07-12 19:52:00,
2013-07-12 14:57:00,78.0,65.7,27.94,SSE,150,8.0,8.0,66,0.00,,---,0.00,VWS V14.01,2013-07-12 19:57:00,
2013-07-12 15:02:00,77.8,65.1,27.93,SE,146,6.0,7.0,65,0.00,,---,0.00,VWS V14.01,2013-07-12 20:02:00,
2013-07-12 15:08:00,77.9,64.3,27.93,SSE,156,7.0,11.0,63,0.00,,---,0.00,VWS V14.01,2013-07-12 20:08:00,
2013-07-12 15:13:00,77.3,64.2,27.93,SSE,157,4.0,12.0,64,0.00,,---,0.00,VWS V14.01,2013-07-12 20:13:00,
2013-07-12 15:18:00,77.3,65.5,27.93,South,177,8.0,8.0,67,0.00,,---,0.00,VWS V14.01,2013-07-12 20:18:00,
2013-07-12 15:24:00,76.5,64.7,27.93,SE,145,5.0,5.0,67,0.00,,---,0.00,VWS V14.01,2013-07-12 20:24:00,
2013-07-12 15:29:00,76.2,64.9,27.93,East,91,11.0,11.0,68,0.00,,---,0.00,VWS V14.01,2013-07-12 20:29:00,
2013-07-12 15:34:00,77.2,65.8,27.93,SE,140,5.0,5.0,68,0.00,,---,0.00,VWS V14.01,2013-07-12 20:34:00,
2013-07-12 15:39:00,77.7,65.4,27.93,South,169,9.0,9.0,66,0.00,,---,0.00,VWS V14.01,2013-07-12 20:39:00,
2013-07-12 15:44:00,78.1,64.9,27.93,SSE,165,2.0,9.0,64,0.00,,---,0.00,VWS V14.01,2013-07-12 20:44:00,
2013-07-12 15:49:00,78.5,64.9,27.92,South,173,4.0,17.0,63,0.00,,---,0.00,VWS V14.01,2013-07-12 20:49:00,
2013-07-12 15:54:00,78.5,64.9,27.92,SE,125,5.0,11.0,63,0.00,,---,0.00,VWS V14.01,2013-07-12 20:54:00,
2013-07-12 15:59:00,78.4,64.3,27.92,SSW,207,7.0,8.0,62,0.00,,---,0.00,VWS V14.01,2013-07-12 20:59:00,
2013-07-12 16:04:00,78.5,64.0,27.93,SE,138,3.0,17.0,61,0.00,,---,0.00,VWS V14.01,2013-07-12 21:04:00,
2013-07-12 16:09:00,78.6,64.0,27.93,SSW,200,2.0,13.0,61,0.00,,---,0.00,VWS V14.01,2013-07-12 21:09:00,
2013-07-12 16:14:00,78.3,63.8,27.93,South,178,9.0,9.0,61,0.00,,---,0.00,VWS V14.01,2013-07-12 21:14:00,
2013-07-12 16:20:00,78.0,64.4,27.92,SSW,213,6.0,8.0,63,0.00,,---,0.00,VWS V14.01,2013-07-12 21:20:00,
2013-07-12 16:25:00,78.1,64.0,27.92,South,190,2.0,10.0,62,0.00,,---,0.00,VWS V14.01,2013-07-12 21:25:00,
2013-07-12 16:31:00,78.4,63.8,27.92,SSE,147,4.0,4.0,61,0.00,,---,0.00,VWS V14.01,2013-07-12 21:31:00,
2013-07-12 16:36:00,78.9,64.8,27.92,SW,229,0.0,1.0,62,0.00,,---,0.00,VWS V14.01,2013-07-12 21:36:00,
2013-07-12 16:41:00,78.7,64.6,27.92,SSW,200,3.0,7.0,62,0.00,,---,0.00,VWS V14.01,2013-07-12 21:41:00,
2013-07-12 16:46:00,78.2,64.1,27.92,South,188,6.0,14.0,62,0.00,,---,0.00,VWS V14.01,2013-07-12 21:46:00,
2013-07-12 16:51:00,77.7,63.7,27.92,NNW,331,5.0,5.0,62,0.00,,---,0.00,VWS V14.01,2013-07-12 21:51:00,
2013-07-12 16:56:00,77.7,64.1,27.92,SSE,149,1.0,2.0,63,0.00,,---,0.00,VWS V14.01,2013-07-12 21:56:00,
2013-07-12 17:01:00,78.0,63.9,27.92,SW,221,1.0,4.0,62,0.00,,---,0.00,VWS V14.01,2013-07-12 22:01:00,
2013-07-12 17:06:00,78.3,63.8,27.92,SSE,152,4.0,13.0,61,0.00,,---,0.00,VWS V14.01,2013-07-12 22:06:00,
2013-07-12 17:11:00,78.1,64.5,27.92,SE,143,6.0,13.0,63,0.00,,---,0.00,VWS V14.01,2013-07-12 22:11:00,
2013-07-12 17:16:00,78.2,64.1,27.92,SSW,209,7.0,8.0,62,0.00,,---,0.00,VWS V14.01,2013-07-12 22:16:00,
2013-07-12 17:22:00,77.8,63.3,27.92,South,188,4.0,4.0,61,0.00,,---,0.00,VWS V14.01,2013-07-12 22:22:00,
2013-07-12 17:27:00,77.8,64.2,27.92,SW,215,2.0,6.0,63,0.00,,---,0.00,VWS V14.01,2013-07-12 22:27:00,
2013-07-12 17:32:00,77.5,63.5,27.92,South,182,5.0,9.0,62,0.00,,---,0.00,VWS V14.01,2013-07-12 22:32:00,
2013-07-12 17:38:00,77.4,63.8,27.92,SSW,204,3.0,7.0,63,0.00,,---,0.00,VWS V14.01,2013-07-12 22:38:00,
2013-07-12 17:43:00,77.1,63.1,27.92,SE,138,2.0,4.0,62,0.00,,---,0.00,VWS V14.01,2013-07-12 22:43:00,
2013-07-12 17:48:00,77.1,63.5,27.92,SSW,196,7.0,9.0,63,0.00,,---,0.00,VWS V14.01,2013-07-12 22:48:00,
2013-07-12 17:53:00,77.4,63.8,27.92,SW,225,4.0,4.0,63,0.00,,---,0.00,VWS V14.01,2013-07-12 22:53:00,
2013-07-12 17:59:00,77.6,64.5,27.92,ESE,109,2.0,3.0,64,0.00,,---,0.00,VWS V14.01,2013-07-12 22:59:00,
2013-07-12 18:04:00,77.8,63.8,27.92,South,183,11.0,11.0,62,0.00,,---,0.00,VWS V14.01,2013-07-12 23:04:00,
2013-07-12 18:09:00,77.7,63.7,27.92,WNW,300,2.0,4.0,62,0.00,,---,0.00,VWS V14.01,2013-07-12 23:09:00,
2013-07-12 18:14:00,77.8,63.3,27.92,SW,232,2.0,4.0,61,0.00,,---,0.00,VWS V14.01,2013-07-12 23:14:00,
2013-07-12 18:20:00,77.6,63.1,27.92,SSE,159,5.0,7.0,61,0.00,,---,0.00,VWS V14.01,2013-07-12 23:20:00,
2013-07-12 18:25:00,77.5,62.5,27.92,East,94,5.0,5.0,60,0.00,,---,0.00,VWS V14.01,2013-07-12 23:25:00,
2013-07-12 18:30:00,77.6,63.1,27.92,SSE,149,1.0,4.0,61,0.00,,---,0.00,VWS V14.01,2013-07-12 23:30:00,
2013-07-12 18:35:00,77.6,63.6,27.92,SSE,167,2.0,8.0,62,0.00,,---,0.00,VWS V14.01,2013-07-12 23:35:00,
2013-07-12 18:40:00,77.4,64.3,27.92,SSE,161,2.0,3.0,64,0.00,,---,0.00,VWS V14.01,2013-07-12 23:40:00,
2013-07-12 18:45:00,77.1,63.1,27.92,SSW,194,5.0,6.0,62,0.00,,---,0.00,VWS V14.01,2013-07-12 23:45:00,
2013-07-12 18:50:00,76.7,63.2,27.93,SSW,209,2.0,2.0,63,0.00,,---,0.00,VWS V14.01,2013-07-12 23:50:00,
2013-07-12 18:55:00,76.4,63.3,27.93,South,177,3.0,11.0,64,0.00,,---,0.00,VWS V14.01,2013-07-12 23:55:00,
2013-07-12 19:00:00,76.0,63.0,27.93,South,190,2.0,6.0,64,0.00,,---,0.00,VWS V14.01,2013-07-13 00:00:00,
2013-07-12 19:05:00,75.8,63.2,27.92,SSE,167,1.0,4.0,65,0.00,,---,0.00,VWS V14.01,2013-07-13 00:05:00,
2013-07-12 19:11:00,75.7,63.1,27.92,SE,128,3.0,4.0,65,0.00,,---,0.00,VWS V14.01,2013-07-13 00:11:00,
2013-07-12 19:16:00,75.5,62.9,27.92,SSW,206,0.0,1.0,65,0.00,,---,0.00,VWS V14.01,2013-07-13 00:16:00,
2013-07-12 19:21:00,75.3,63.2,27.92,SSE,164,2.0,3.0,66,0.00,,---,0.00,VWS V14.01,2013-07-13 00:21:00,
2013-07-12 19:26:00,75.1,62.5,27.92,South,188,0.0,6.0,65,0.00,,---,0.00,VWS V14.01,2013-07-13 00:26:00,
2013-07-12 19:31:00,74.9,63.2,27.92,South,169,4.0,8.0,67,0.00,,---,0.00,VWS V14.01,2013-07-13 00:31:00,
2013-07-12 19:36:00,74.7,63.0,27.92,ENE,59,2.0,3.0,67,0.00,,---,0.00,VWS V14.01,2013-07-13 00:36:00,
2013-07-12 19:41:00,74.5,62.4,27.92,SE,145,0.0,6.0,66,0.00,,---,0.00,VWS V14.01,2013-07-13 00:41:00,
2013-07-12 19:47:00,74.3,63.1,27.91,SSE,153,4.0,8.0,68,0.00,,---,0.00,VWS V14.01,2013-07-13 00:47:00,
2013-07-12 19:52:00,74.2,62.5,27.91,SSE,165,2.0,3.0,67,0.00,,---,0.00,VWS V14.01,2013-07-13 00:52:00,
2013-07-12 19:57:00,74.1,62.9,27.91,SSE,159,0.0,0.0,68,0.00,,---,0.00,VWS V14.01,2013-07-13 00:57:00,
2013-07-12 20:02:00,73.8,62.2,27.91,South,171,0.0,2.0,67,0.00,,---,0.00,VWS V14.01,2013-07-13 01:02:00,
2013-07-12 20:07:00,73.7,62.1,27.91,SSW,198,3.0,7.0,67,0.00,,---,0.00,VWS V14.01,2013-07-13 01:07:00,
2013-07-12 20:12:00,73.5,61.9,27.91,South,179,4.0,5.0,67,0.00,,---,0.00,VWS V14.01,2013-07-13 01:12:00,
2013-07-12 20:17:00,73.4,62.2,27.91,ESE,120,1.0,1.0,68,0.00,,---,0.00,VWS V14.01,2013-07-13 01:17:00,
2013-07-12 20:23:00,73.3,62.1,27.91,ESE,107,0.0,0.0,68,0.00,,---,0.00,VWS V14.01,2013-07-13 01:23:00,
2013-07-12 20:28:00,73.0,62.2,27.91,SSE,162,2.0,4.0,69,0.00,,---,0.00,VWS V14.01,2013-07-13 01:28:00,
2013-07-12 20:33:00,72.8,62.0,27.92,SSE,165,3.0,4.0,69,0.00,,---,0.00,VWS V14.01,2013-07-13 01:33:00,
2013-07-12 20:39:00,72.5,62.2,27.92,SSE,148,0.0,5.0,70,0.00,,---,0.00,VWS V14.01,2013-07-13 01:39:00,
2013-07-12 20:44:00,72.5,62.2,27.92,SE,130,1.0,6.0,70,0.00,,---,0.00,VWS V14.01,2013-07-13 01:44:00,
2013-07-12 20:49:00,72.2,61.9,27.92,South,175,5.0,10.0,70,0.00,,---,0.00,VWS V14.01,2013-07-13 01:49:00,
2013-07-12 20:54:00,72.0,62.1,27.92,SSE,164,2.0,9.0,71,0.00,,---,0.00,VWS V14.01,2013-07-13 01:54:00,
2013-07-12 20:59:00,72.0,61.7,27.92,SE,136,5.0,12.0,70,0.00,,---,0.00,VWS V14.01,2013-07-13 01:59:00,
2013-07-12 21:05:00,72.0,62.1,27.91,SSW,207,0.0,7.0,71,0.00,,---,0.00,VWS V14.01,2013-07-13 02:05:00,
2013-07-12 21:10:00,71.8,61.9,27.91,SSW,206,4.0,4.0,71,0.00,,---,0.00,VWS V14.01,2013-07-13 02:10:00,
2013-07-12 21:15:00,71.7,61.4,27.91,SE,143,1.0,8.0,70,0.00,,---,0.00,VWS V14.01,2013-07-13 02:15:00,
2013-07-12 21:20:00,71.6,61.3,27.92,SSW,198,0.0,8.0,70,0.00,,---,0.00,VWS V14.01,2013-07-13 02:20:00,
2013-07-12 21:26:00,71.5,61.6,27.92,SW,215,3.0,4.0,71,0.00,,---,0.00,VWS V14.01,2013-07-13 02:26:00,
2013-07-12 21:31:00,71.3,61.4,27.92,ESE,112,1.0,1.0,71,0.00,,---,0.00,VWS V14.01,2013-07-13 02:31:00,
2013-07-12 21:36:00,71.3,61.8,27.92,WSW,250,0.0,0.0,72,0.00,,---,0.00,VWS V14.01,2013-07-13 02:36:00,
2013-07-12 21:41:00,71.2,61.3,27.92,South,186,1.0,8.0,71,0.00,,---,0.00,VWS V14.01,2013-07-13 02:41:00,
2013-07-12 21:46:00,71.2,61.7,27.94,SSW,211,1.0,5.0,72,0.00,,---,0.00,VWS V14.01,2013-07-13 02:46:00,
2013-07-12 21:52:00,71.1,61.2,27.94,South,177,0.0,0.0,71,0.00,,---,0.00,VWS V14.01,2013-07-13 02:52:00,
2013-07-12 21:57:00,71.0,61.5,27.94,SW,226,0.0,0.0,72,0.00,,---,0.00,VWS V14.01,2013-07-13 02:57:00,
2013-07-12 22:02:00,71.0,61.5,27.95,WSW,255,0.0,0.0,72,0.00,,---,0.00,VWS V14.01,2013-07-13 03:02:00,
2013-07-12 22:07:00,70.9,61.4,27.95,SSE,155,0.0,0.0,72,0.00,,---,0.00,VWS V14.01,2013-07-13 03:07:00,
2013-07-12 22:13:00,70.9,61.0,27.95,SW,235,2.0,4.0,71,0.00,,---,0.00,VWS V14.01,2013-07-13 03:13:00,
2013-07-12 22:18:00,71.0,61.1,27.94,SE,140,3.0,6.0,71,0.00,,---,0.00,VWS V14.01,2013-07-13 03:18:00,
2013-07-12 22:23:00,71.0,61.5,27.94,SW,220,0.0,0.0,72,0.00,,---,0.00,VWS V14.01,2013-07-13 03:23:00,
2013-07-12 22:28:00,70.9,61.0,27.94,East,101,0.0,7.0,71,0.00,,---,0.00,VWS V14.01,2013-07-13 03:28:00,
2013-07-12 22:33:00,70.7,61.2,27.92,SSE,149,2.0,5.0,72,0.00,,---,0.00,VWS V14.01,2013-07-13 03:33:00,
2013-07-12 22:38:00,70.8,61.3,27.92,SSE,149,5.0,8.0,72,0.00,,---,0.00,VWS V14.01,2013-07-13 03:38:00,
2013-07-12 22:43:00,70.6,60.8,27.92,SSW,210,5.0,5.0,71,0.00,,---,0.00,VWS V14.01,2013-07-13 03:43:00,
2013-07-12 22:48:00,70.7,61.2,27.92,SSW,210,3.0,9.0,72,0.00,,---,0.00,VWS V14.01,2013-07-13 03:48:00,
2013-07-12 22:54:00,70.6,60.8,27.92,South,169,7.0,7.0,71,0.00,,---,0.00,VWS V14.01,2013-07-13 03:54:00,
2013-07-12 22:59:00,70.6,61.5,27.92,WSW,239,2.0,2.0,73,0.00,,---,0.00,VWS V14.01,2013-07-13 03:59:00,
2013-07-12 23:01:00,70.6,61.5,27.93,SSE,151,4.0,4.0,73,0.00,,---,0.00,VWS V14.01,2013-07-13 04:01:00,
2013-07-12 23:02:00,70.6,61.1,27.93,SSE,158,0.0,5.0,72,0.00,,---,0.00,VWS V14.01,2013-07-13 04:02:00,
2013-07-12 23:05:00,70.5,61.0,27.93,SE,133,9.0,9.0,72,0.00,,---,0.00,VWS V14.01,2013-07-13 04:05:00,
2013-07-12 23:10:00,70.4,61.3,27.93,South,171,1.0,3.0,73,0.00,,---,0.00,VWS V14.01,2013-07-13 04:10:00,
2013-07-12 23:15:00,70.4,61.3,27.93,South,190,1.0,8.0,73,0.00,,---,0.00,VWS V14.01,2013-07-13 04:15:00,
2013-07-12 23:20:00,70.4,61.3,27.92,SSE,148,0.0,6.0,73,0.00,,---,0.00,VWS V14.01,2013-07-13 04:20:00,
2013-07-12 23:25:00,70.3,61.2,27.92,South,178,3.0,7.0,73,0.00,,---,0.00,VWS V14.01,2013-07-13 04:25:00,
2013-07-12 23:31:00,70.3,61.2,27.92,SSW,211,1.0,5.0,73,0.00,,---,0.00,VWS V14.01,2013-07-13 04:31:00,
2013-07-12 23:36:00,70.2,61.2,27.93,SW,221,3.0,4.0,73,0.00,,---,0.00,VWS V14.01,2013-07-13 04:36:00,
2013-07-12 23:41:00,70.1,61.0,27.93,SSW,198,4.0,6.0,73,0.00,,---,0.00,VWS V14.01,2013-07-13 04:41:00,
2013-07-12 23:46:00,69.7,62.2,27.94,SE,138,2.0,4.0,77,0.00,,---,0.00,VWS V14.01,2013-07-13 04:46:00,
2013-07-12 23:51:00,68.8,62.7,27.94,SSE,164,1.0,9.0,81,0.00,,---,0.00,VWS V14.01,2013-07-13 04:51:00,
2013-07-12 23:57:00,68.1,62.8,27.94,SE,136,1.0,2.0,83,0.00,,---,0.00,VWS V14.01,2013-07-13 04:57:00,